www.pogodaiklimat.ru

Погода и климат >> Архив погоды >> Багамские Острова >> Nassau


АРХИВ ПОГОДЫ в Nassau

Время (UTC), дата Ветер
(напр.,м/с)
 
Видим.   Явления Облачность Т
(С)
Тd
(С)
f
(%)
Тe
(С)
Тes
(С)
Комфортность P
(гПа)
Po
(гПа)
Тmin
(С)
Tmax
(С)
R
(мм)
R24
(мм)
S
(см)
09 19.09 нст 1 15 км 5/4 600 м
[Cu med, cong Ci fib]
+26.2 +24.8 92 +37 +37 очень
душно
1013.8 1014.0
12 19.09 нст 1 15 км осадки на расстоянии 4/4 450 м
[Cb cap]
+26.1 +24.9 93 +37 +38 очень
душно
1015.1 1015.0 +24.6 +33.2
15 19.09 З 2 11 км слабый ливневой дождь 6/5 450 м
[Cb cap Ac trans Ci ing]
+31.2 +25.7 73 +46 +53 опасность
перегрева
1016.7 1017.0
18 19.09 СВ 2 13 км осадки на расстоянии {ливн. осадки} 6/4 450 м
[Cb cap Ci ing]
+31.0 +25.6 73 +46 +55 опасность
перегрева
1015.4 1015.0 15
21 19.09 СВ 3 13 км гроза без осадков {ливн. осадки} 8/5 450 м
[Cb cap Ac As Ci sp]
+30.9 +26.2 76 +47 +48 опасность
перегрева
1014.5 1015.0
00 20.09 нст 1 13 км в посл. час гроза 8/5 450 м
[Cb cap Ac As Ci ing]
+27.8 +25.2 86 +40 +40 очень
душно
1015.3 1015.0 +24.6 +31.4 0.2
03 20.09 штиль 0 15 км 5/5 450 м
[Cb cap Ci ing]
+26.8 +25.2 91 +39 +39 очень
душно
1016.5 1017.0
06 20.09 Ю 2 15 км 6/6 660 м
[Cu med, cong Ci sp]
+26.3 +25.4 95 +38 +38 очень
душно
1016.0 1016.0
09 20.09 нст 1 15 км 3/3 660 м
[Cu med, cong Ci sp]
+26.0 +24.6 92 +37 +37 очень
душно
1015.1 1015.0
12 20.09 С 2 15 км 3/1 660 м
[Cu Sc Ci fib]
+26.0 +24.9 94 +37 +38 очень
душно
1016.7 1017.0 +24.8 +31.4
15 20.09 С 3 15 км 3/3 540 м
[Cb cap]
+32.0 +26.6 73 +49 +57 опасность
перегрева
1018.6 1019.0
18 20.09 СВ 4 15 км 5/5 450 м
[Cb cap Ci ing]
+32.0 +25.3 68 +46 +52 опасность
перегрева
1017.4 1017.0
21 20.09 СВ 5 15 км зарница 5/4 450 м
[Cb cap Ac cuf Ci ing]
+32.1 +25.5 68 +47 +48 опасность
перегрева
1016.5 1017.0
00 21.09 В 4 15 км зарница {гроза} 8/3 450 м
[Cb cap Ac As Ci ing]
+29.8 +25.6 78 +44 +44 опасность
перегрева
1016.5 1017.0 +24.8 +32.5
03 21.09 ЮВ 3 15 км 6/5 450 м
[Cb cap Ac trans Ci sp]
+29.0 +25.2 80 +42 +42 опасность
перегрева
1018.3 1018.0
06 21.09 В 4 15 км слабый ливневой дождь 5/4 450 м
[Cb cap Ac trans Ci sp]
+28.9 +23.4 72 +39 +39 очень
душно
1017.2 1017.0 0.0
09 21.09 В 2 15 км {ливн. осадки} 5/4 750 м
[Cu med, cong Ci fib]
+2.8 +25.3 100 0 0 очень
холодно
1015.9 1016.0
12 21.09 В 2 15 км 5/4 660 м
[Cu med, cong Ci fib]
+28.0 +25.2 85 +41 +41 опасность
перегрева
1017.3 1017.0 +26.0 +32.5
18 21.09 З 2 13 км в посл. час ливневой дождь 5/5 450 м
[Cb cap Ci ing]
+27.4 +24.8 86 +39 +48 очень
душно
1017.0 1017.0 16
21 21.09 В 5 13 км осадки на расстоянии {ливн. осадки} 8/5 450 м
[Cb cap Ci ing]
+31.2 +25.4 71 +45 +47 опасность
перегрева
1015.5 1016.0
00 22.09 В 3 13 км зарница 6/4 450 м
[Cb cap Ci ing]
+28.9 +24.7 78 +41 +41 опасность
перегрева
1016.1 1016.0 +23.5 +30.5
03 22.09 В 2 13 км 10/4 450 м
[Cb cap Ac As]
+28.9 +24.8 79 +41 +41 опасность
перегрева
1017.2 1017.0
06 22.09 В 3 13 км 6/4 750 м
[Cu Sc Ci ing]
+28.0 +24.7 82 +40 +40 очень
душно
1016.4 1016.0
09 22.09 нст 1 13 км 5/3 270 м
[Cu Sc Ci ing]
+26.7 +24.6 88 +38 +38 очень
душно
1015.4 1015.0
12 22.09 В 3 15 км 4/3 660 м
[Cu med, cong Ci fib]
+27.7 +25.1 86 +40 +41 очень
душно
1015.8 1016.0 +25.2 +30.5
15 22.09 В 4 15 км 5/5 450 м
[Cb cap Ci ing]
+31.8 +25.0 67 +45 +50 опасность
перегрева
1016.6 1017.0
18 22.09 В 5 15 км осадки на расстоянии 5/5 450 м
[Cb cap Ac trans Ci ing]
+32.0 +25.3 68 +46 +51 опасность
перегрева
1015.4 1015.0
21 22.09 В 4 15 км 4/4 450 м
[Cb cap Ci ing]
+32.0 +23.5 61 +43 +45 опасность
перегрева
1014.4 1014.0
00 23.09 В 2 15 км 5/4 450 м
[Cb cap Ac cuf Ci ing]
+28.8 +24.5 78 +41 +41 опасность
перегрева
1014.8 1015.0 +25.2 +33.0
06 23.09 штиль 0 15 км 1/1 540 м
[Cu med, cong]
+27.0 +23.5 81 +37 +37 очень
душно
1014.8 1015.0
09 23.09 нст 1 15 км 4/1 540 м
[Cu med, cong Ci fib]
+25.0 +23.6 92 +34 +34 очень
душно
1013.8 1014.0
12 23.09 Ю 2 15 км в посл. час ливневой дождь 6/6 540 м
[Cu med, cong]
+27.7 +26.0 90 +41 +42 опасность
перегрева
1015.1 1015.0 +23.9 +33.0 0.0
15 23.09 В 3 15 км слабый ливневой дождь 5/5 540 м
[Cu Sc]
+29.0 +26.6 87 +45 +50 опасность
перегрева
1016.2 1016.0
18 23.09 ЮЗ 3 15 км в посл. час ливневой дождь 6/6 450 м
[Cb cap]
+27.3 +25.4 89 +40 +45 очень
душно
1015.2 1015.0 1
21 23.09 СВ 3 15 км 5/5 660 м
[Cu Sc Ac trans Ci sp]
+31.8 +25.5 69 +46 +48 опасность
перегрева
1013.9 1014.0
00 24.09 В 3 15 км 4/3 660 м
[Cu Sc Ci sp]
+28.8 +24.4 77 +40 +40 очень
душно
1014.1 1014.0 +23.9 +31.6
03 24.09 В 2 15 км 4/3 600 м
[Cu med, cong Ci fib]
+28.0 +24.5 81 +39 +39 очень
душно
1015.3 1015.0
06 24.09 штиль 0 15 км 3/3 600 м
[Cu med, cong]
+25.4 +23.7 90 +35 +35 очень
душно
1014.9 1015.0
09 24.09 штиль 0 15 км 4/3 600 м
[Cu med, cong Ci fib]
+25.0 +23.4 91 +34 +34 очень
душно
1014.5 1015.0
12 24.09 В 2 15 км 4/3 450 м
[Cb cap Ac cuf Ci ing]
+25.1 +24.2 95 +35 +35 очень
душно
1016.0 1016.0 +23.5 +31.6
15 24.09 СВ 3 15 км 4/4 450 м
[Cb cap]
+32.1 +25.1 67 +46 +53 опасность
перегрева
1017.1 1017.0
18 24.09 С 2 11 км слабая морось {ливн. осадки} 8/6 450 м
[Cb cap Ci ing]
+30.1 +24.8 73 +43 +49 опасность
перегрева
1016.7 1017.0 0.2
21 24.09 СВ 3 13 км слабый ливневой дождь 9/6 750 м
[Cu med, cong Ac As Ci ing]
+28.1 +26.0 88 +42 +43 опасность
перегрева
1015.3 1015.0
00 25.09 ЮВ 2 13 км слабый ливневой дождь 4/3 300 м
[Cb cap As trans Cs]
+32.1 +21.8 55 +41 +41 опасность
перегрева
1015.8 1016.0 8
03 25.09 нст 1 15 км 4/3 720 м
[Cu med, cong Ci sp]
+26.9 +24.9 89 +39 +39 очень
душно
1017.6 1018.0
06 25.09 штиль 0 15 км слабый ливневой дождь 8/6 450 м
[Cb cap Ci ing]
+25.2 +23.5 90 +34 +34 очень
душно
1017.4 1017.0 0.2
09 25.09 ЮВ 3 13 км слабый ливневой дождь 8/6 540 м
[Cu med, cong Ci sp]
+26.8 +25.2 91 +39 +39 очень
душно
1016.9 1017.0
12 25.09 нст 1 15 км {ливн. осадки} 3/1 540 м
[Cu med, cong Ci sp]
+26.6 +25.7 95 +26 +26 жарко 1018.3 1018.0 +21.8 +32.1 2
15 25.09 ЮВ 5 15 км 5/5 600 м
[Cu med, cong]
+31.8 +25.5 69 +46 +50 опасность
перегрева
1019.4 1019.0
18 25.09 ЮВ 6 15 км 5/5 600 м
[Cb cap]
+33.3 +25.1 62 +47 +51 опасность
перегрева
1018.7 1019.0
21 25.09 ЮВ 5 15 км 5/5 600 м
[Cb cap Ci ing]
+32.9 +25.0 63 +46 +48 опасность
перегрева
1017.5 1018.0
00 26.09 В 4 15 км 5/5 600 м
[Cb cap Ci ing]
+28.1 +23.9 78 +39 +39 очень
душно
1017.9 1018.0 +23.8 +33.0
03 26.09 ЮВ 4 15 км {ливн. осадки} 4/4 750 м
[Cu med, cong Ci fib]
+29.8 +25.2 76 +43 +43 опасность
перегрева
1019.8 1020.0

 

Местоположение метеостанции Nassau (Багамские Острова): широта 25.05 долгота -77.46 высота над уровнем моря 7 м.

В архиве по умолчанию представлена погода в Nassau за последнюю неделю. Архивные данные за месяц целиком и за предыдущие месяцы, начиная с января 2011 года, Вы можете получить, выбрав интересующий диапазон дат из раскрывающегося списка и нажав кнопку "Ввод!".


*Определитесь, кто Вы:
робот инопланетянин человек

Внимание! Время в таблицах - всемирное. Для получения местного времени необходимо прибавить поправку, которая в Nassau равна -4 ч.

Смотрите также архив погоды в соседних городах и на ближайших метеорологических станциях:

Погода в Grand Bahama (Багамские Острова) (208 км)
Погода в Cayo Coco (Куба) (295 км)
Погода в Caibarien (Куба) (347 км)
Погода в El Yabu (Куба) (385 км)
Погода в Nuevitas (Куба) (392 км)
Погода в Sancti Spiritus (Куба) (402 км)
Погода в Camaguey airport (Куба) (406 км)
Погода в Jucaro (Куба) (407 км)
Погода в Camaguey (Куба) (408 км)
Погода в Puerto Padre (Куба) (437 км)

Пояснения к столбцам:

Ветер - указаны скорость ветра в м/с - средняя за 10 мин, порывы в срок и между сроками (в фигурных скобках) и направление, откуда дует ветер: С - северный, СВ - северо-восточный, В - восточный, ЮВ - юго-восточный, Ю - южный, ЮЗ - юго-западный, З - западный, СЗ - северо-западный.
Видимость - горизонтальная дальность видимости в метрах или километрах. При видимости от 1 до 10 км при отсутствии осадков обычно наблюдается дымка, при ухудшении видимости до 1 км и менее - туман. В сухую погоду видимость может ухудшаться дымом, пылью или мглою.
Явления - указаны атмосферные явления, наблюдавшиеся в срок или в последний час перед сроком; фигурными скобками обозначены явления, наблюдавшиеся между сроками (за 1-3 часа до срока); квадратными скобками обозначены град или гололедные отложения с указанием их диаметра в мм.
Облачность - указаны через наклонную черту общая и нижняя облачность в баллах и высота нижней границы облаков в метрах; квадратными скобками обозначены формы облаков: Ci - перистые, Cs - перисто-слоистые, Cc - перисто-кучевые, Ac - высококучевые, As - высокослоистые, Sc - слоисто-кучевые, Ns - слоисто-дождевые, Cu - кучевые, Cb - кучево-дождевые. Подробнее классификацию облаков см. в Атласе облаков (PDF).
T - Температура воздуха - температура, измеренная на высоте 2 м над землей.
Td - Температура точки росы - температура, при понижении до которой содержащийся в воздухе водяной пар достигнет насыщения.
f - Относительная влажность воздуха - влажноcть воздуха, измеренная на высоте 2 м над землей.
Te - Эффективная температура - температура, которую ощущает одетый по сезону человек в тени. Характеристика душности погоды. При расчете учитывается влияние влажности воздуха и скорости ветра на теплоощущения человека.
Tes - Эффективная температура на солнце - температура, которую ощущает человек, с поправкой на солнечный нагрев. Характеристика знойности погоды. Зависит от высоты солнца над горизонтом, облачности и скорости ветра. Ночью, в пасмурную погоду, а также при ветре 12 м/с и более поправка равна нулю.
P - Атмосферное давление - приведенное к уровню моря атмосферное давление.
Po - Атмосферное давление - измеренное на уровне метеостанции атмосферное давление.
Tmin - Минимальная температура - минимум температуры воздуха на высоте 2 м над землей.
Tmax - Максимальная температура - максимум температуры воздуха на высоте 2 м над землей.
R - Количество осадков - Количество выпавших осадков за период времени, мм. При наведении курсора мыши на число - период времени, за который выпало указанное количество осадков.
R24 - Количество осадков - Количество выпавших осадков за 24 часа, мм.
S - Снежный покров - Высота снежного покрова, см. При наведении курсора мыши на число - состояние снежного покрова и степень покрытия местности в баллах.